| time (UTC) | temp C | wind direction | speed KPH | gust KPH | rain 1hr cm | rain 24hr cm | rain mn cm | humidity % | barometer mb |
| 20260504175820 | 15 | 176 | 19.3 | 25.7 | 0.00 | 0.00 | 0.00 | 81 | 1013.7 |
| 20260504175317 | 15 | 173 | 11.3 | 22.5 | 0.00 | 0.00 | 0.00 | 80 | 1013.7 |
| 20260504174815 | 15 | 195 | 14.5 | 20.9 | 0.00 | 0.00 | 0.00 | 82 | 1013.8 |
| 20260504174312 | 15 | 196 | 19.3 | 22.5 | 0.00 | 0.00 | 0.00 | 80 | 1013.9 |
| 20260504173809 | 15 | 201 | 12.9 | 25.7 | 0.00 | 0.00 | 0.00 | 81 | 1014.1 |
| 20260504173305 | 15 | 197 | 9.7 | 22.5 | 0.00 | 0.00 | 0.00 | 83 | 1014.0 |
| 20260504172803 | 13 | 165 | 14.5 | 33.8 | 0.00 | 0.00 | 0.00 | 83 | 1014.0 |
| 20260504172259 | 14 | 125 | 11.3 | 22.5 | 0.00 | 0.00 | 0.00 | 82 | 1014.1 |
| 20260504171755 | 15 | 165 | 8.0 | 19.3 | 0.00 | 0.00 | 0.00 | 82 | 1014.2 |
| 20260504171252 | 14 | 166 | 6.4 | 24.1 | 0.00 | 0.00 | 0.00 | 83 | 1014.3 |
| 20260504170749 | 14 | 168 | 9.7 | 27.4 | 0.00 | 0.00 | 0.00 | 82 | 1014.4 |
| 20260504170246 | 14 | 163 | 11.3 | 25.7 | 0.00 | 0.00 | 0.00 | 83 | 1014.4 |
| 20260504160205 | 14 | 219 | 16.1 | 22.5 | 0.00 | 0.00 | 0.00 | 83 | 1014.9 |
| 20260504151133 | 13 | 205 | 16.1 | 20.9 | 0.00 | 0.00 | 0.00 | 83 | 1015.2 |
| 20260504150630 | 13 | 193 | 6.4 | 22.5 | 0.00 | 0.00 | 0.00 | 84 | 1015.3 |
| 20260504150127 | 13 | 214 | 16.1 | 27.4 | 0.00 | 0.00 | 0.00 | 83 | 1015.4 |
| 20260504141055 | 13 | 208 | 11.3 | 22.5 | 0.00 | 0.00 | 0.00 | 83 | 1015.5 |
| 20260504140552 | 13 | 205 | 9.7 | 24.1 | 0.00 | 0.00 | 0.00 | 84 | 1015.4 |
| 20260504130516 | 12 | 172 | 20.9 | 20.9 | 0.00 | 0.00 | 0.00 | 87 | 1015.8 |
| 20260504110404 | 12 | 194 | 17.7 | 22.5 | 0.00 | 0.00 | 0.00 | 77 | 1016.5 |
| 20260504100321 | 11 | 204 | 11.3 | 17.7 | 0.00 | 0.00 | 0.00 | 80 | 1016.4 |
| 20260504081714 | 11 | 229 | 11.3 | 27.4 | 0.00 | 0.00 | 0.00 | 67 | 1016.2 |
| 20260504081211 | 11 | 222 | 8.0 | 24.1 | 0.00 | 0.00 | 0.00 | 66 | 1016.3 |
| 20260504080707 | 11 | 242 | 9.7 | 24.1 | 0.00 | 0.00 | 0.00 | 65 | 1016.2 |
| 20260504080204 | 11 | 250 | 8.0 | 20.9 | 0.00 | 0.00 | 0.00 | 63 | 1016.0 |
| 20260504070131 | 11 | 210 | 6.4 | 19.3 | 0.00 | 0.00 | 0.00 | 62 | 1016.0 |
| 20260504050520 | 12 | 236 | 6.4 | 17.7 | 0.00 | 0.00 | 0.00 | 54 | 1015.7 |
| 20260504050017 | 12 | 247 | 8.0 | 14.5 | 0.00 | 0.00 | 0.00 | 54 | 1015.6 |
| 20260504045514 | 12 | 330 | 3.2 | 24.1 | 0.00 | 0.00 | 0.00 | 54 | 1015.5 |
| 20260504045009 | 12 | 219 | 11.3 | 19.3 | 0.00 | 0.00 | 0.00 | 53 | 1015.4 |
| 20260504044507 | 12 | 209 | 9.7 | 14.5 | 0.00 | 0.00 | 0.00 | 53 | 1015.4 |
| 20260504044004 | 12 | 210 | 6.4 | 17.7 | 0.00 | 0.00 | 0.00 | 53 | 1015.5 |
| 20260504043500 | 12 | 254 | 6.4 | 27.4 | 0.00 | 0.00 | 0.00 | 53 | 1015.6 |
| 20260504042958 | 12 | 296 | 17.7 | 19.3 | 0.00 | 0.00 | 0.00 | 53 | 1015.5 |
| 20260504042454 | 12 | 247 | 9.7 | 17.7 | 0.00 | 0.00 | 0.00 | 55 | 1015.7 |
| 20260504041951 | 12 | 59 | 6.4 | 16.1 | 0.00 | 0.00 | 0.00 | 55 | 1015.4 |
| 20260504041448 | 12 | 225 | 6.4 | 14.5 | 0.00 | 0.00 | 0.00 | 56 | 1015.5 |
| 20260504040943 | 12 | 263 | 6.4 | 19.3 | 0.00 | 0.00 | 0.00 | 56 | 1015.4 |
| 20260504040441 | 12 | 237 | 8.0 | 20.9 | 0.00 | 0.00 | 0.00 | 56 | 1015.5 |
| 20260504035937 | 12 | 220 | 9.7 | 24.1 | 0.00 | 0.00 | 0.00 | 56 | 1015.4 |
| 20260504035435 | 12 | 242 | 6.4 | 16.1 | 0.00 | 0.00 | 0.00 | 57 | 1015.4 |
| 20260504034931 | 12 | 242 | 3.2 | 14.5 | 0.00 | 0.00 | 0.00 | 57 | 1015.1 |
| 20260504034429 | 12 | 260 | 8.0 | 12.9 | 0.00 | 0.00 | 0.00 | 58 | 1015.3 |
| 20260504033926 | 12 | 222 | 3.2 | 17.7 | 0.00 | 0.00 | 0.00 | 59 | 1015.2 |
| 20260504033423 | 12 | 218 | 6.4 | 11.3 | 0.00 | 0.00 | 0.00 | 60 | 1015.3 |
| 20260504032920 | 12 | 223 | 6.4 | 17.7 | 0.00 | 0.00 | 0.00 | 58 | 1015.2 |
| 20260504032417 | 12 | 198 | 6.4 | 17.7 | 0.00 | 0.00 | 0.00 | 57 | 1015.1 |
| 20260504031914 | 12 | 252 | 4.8 | 17.7 | 0.00 | 0.00 | 0.00 | 55 | 1015.2 |
| 20260504031411 | 12 | 201 | 8.0 | 16.1 | 0.00 | 0.00 | 0.00 | 55 | 1015.4 |
| 20260504030908 | 12 | 213 | 6.4 | 11.3 | 0.00 | 0.00 | 0.00 | 55 | 1015.1 |
| 20260504030405 | 12 | 256 | 6.4 | 17.7 | 0.00 | 0.00 | 0.00 | 55 | 1015.2 |
| 20260504025901 | 12 | 185 | 4.8 | 14.5 | 0.00 | 0.00 | 0.00 | 53 | 1015.2 |
| 20260504025358 | 12 | 238 | 4.8 | 14.5 | 0.00 | 0.00 | 0.00 | 52 | 1015.1 |
| 20260504024854 | 12 | 212 | 6.4 | 14.5 | 0.00 | 0.00 | 0.00 | 50 | 1015.1 |
| 20260504024351 | 12 | 223 | 8.0 | 14.5 | 0.00 | 0.00 | 0.00 | 49 | 1015.1 |
| 20260504023848 | 12 | 179 | 0.0 | 12.9 | 0.00 | 0.00 | 0.00 | 47 | 1015.3 |
| 20260504023345 | 12 | 196 | 3.2 | 9.7 | 0.00 | 0.00 | 0.00 | 48 | 1015.0 |
| 20260504022840 | 12 | 215 | 8.0 | 12.9 | 0.00 | 0.00 | 0.00 | 50 | 1015.4 |
| 20260504022337 | 12 | 284 | 3.2 | 9.7 | 0.00 | 0.00 | 0.00 | 51 | 1015.1 |
| 20260504021834 | 12 | 267 | 3.2 | 14.5 | 0.00 | 0.00 | 0.00 | 50 | 1014.9 |
| 20260504021331 | 12 | 225 | 12.9 | 17.7 | 0.00 | 0.00 | 0.00 | 49 | 1015.2 |
| 20260504020828 | 12 | 232 | 4.8 | 11.3 | 0.00 | 0.00 | 0.00 | 49 | 1015.1 |
| 20260504020325 | 12 | 16 | 3.2 | 12.9 | 0.00 | 0.00 | 0.00 | 49 | 1015.1 |
| 20260504015821 | 12 | 222 | 6.4 | 12.9 | 0.00 | 0.00 | 0.00 | 47 | 1015.0 |
| 20260504015317 | 12 | 224 | 4.8 | 9.7 | 0.00 | 0.00 | 0.00 | 46 | 1015.1 |
| 20260504014814 | 12 | 8 | 3.2 | 12.9 | 0.00 | 0.00 | 0.00 | 46 | 1015.0 |
| 20260504014309 | 12 | 236 | 4.8 | 9.7 | 0.00 | 0.00 | 0.00 | 47 | 1015.0 |
| 20260504013808 | 12 | 296 | 4.8 | 11.3 | 0.00 | 0.00 | 0.00 | 47 | 1015.0 |
| 20260504013305 | 12 | 213 | 4.8 | 9.7 | 0.00 | 0.00 | 0.00 | 47 | 1015.1 |
| 20260504012801 | 12 | 222 | 3.2 | 11.3 | 0.00 | 0.00 | 0.00 | 47 | 1014.9 |
| 20260504012259 | 12 | 236 | 4.8 | 9.7 | 0.00 | 0.00 | 0.00 | 47 | 1014.8 |
| 20260504011756 | 12 | 183 | 6.4 | 12.9 | 0.00 | 0.00 | 0.00 | 46 | 1014.8 |
| 20260504011253 | 12 | 227 | 4.8 | 12.9 | 0.00 | 0.00 | 0.00 | 46 | 1014.8 |
| 20260504010749 | 12 | 211 | 4.8 | 9.7 | 0.00 | 0.00 | 0.00 | 45 | 1014.6 |
| 20260504010244 | 12 | 252 | 1.6 | 12.9 | 0.00 | 0.00 | 0.00 | 44 | 1014.4 |
| 20260504005741 | 12 | 245 | 4.8 | 9.7 | 0.00 | 0.00 | 0.00 | 44 | 1014.4 |
| 20260504005238 | 13 | 209 | 3.2 | 9.7 | 0.00 | 0.00 | 0.00 | 44 | 1014.1 |
| 20260504004736 | 13 | 212 | 4.8 | 14.5 | 0.00 | 0.00 | 0.00 | 43 | 1014.1 |
| 20260504004233 | 12 | 286 | 0.0 | 11.3 | 0.00 | 0.00 | 0.00 | 44 | 1014.1 |
| 20260504003729 | 12 | 208 | 4.8 | 11.3 | 0.00 | 0.00 | 0.00 | 44 | 1014.0 |
| 20260504003227 | 12 | 174 | 4.8 | 8.0 | 0.00 | 0.00 | 0.00 | 45 | 1014.0 |
| 20260504002723 | 12 | 280 | 3.2 | 9.7 | 0.00 | 0.00 | 0.00 | 47 | 1013.8 |
| 20260504002220 | 12 | 336 | 4.8 | 11.3 | 0.00 | 0.00 | 0.00 | 47 | 1014.0 |
| 20260504001718 | 12 | 170 | 4.8 | 11.3 | 0.00 | 0.00 | 0.00 | 48 | 1014.0 |
| 20260504001215 | 12 | 169 | 0.0 | 11.3 | 0.00 | 0.00 | 0.00 | 48 | 1013.8 |
| 20260504000711 | 12 | 234 | 3.2 | 9.7 | 0.00 | 0.00 | 0.00 | 51 | 1013.9 |
| 20260504000208 | 12 | 156 | 1.6 | 11.3 | 0.00 | 0.00 | 0.00 | 50 | 1013.9 |
| 20260503235707 | 13 | 356 | 3.2 | 11.3 | 0.00 | 0.00 | 0.00 | 51 | 1013.8 |
| 20260503235203 | 13 | 268 | 3.2 | 8.0 | 0.00 | 0.00 | 0.00 | 51 | 1013.7 |
| 20260503234701 | 13 | 290 | 6.4 | 12.9 | 0.00 | 0.00 | 0.00 | 47 | 1013.6 |
| 20260503234159 | 13 | 299 | 3.2 | 16.1 | 0.00 | 0.00 | 0.00 | 45 | 1013.5 |
| 20260503233655 | 13 | 326 | 4.8 | 12.9 | 0.00 | 0.00 | 0.00 | 45 | 1013.6 |
| 20260503233151 | 13 | 325 | 11.3 | 12.9 | 0.00 | 0.00 | 0.00 | 46 | 1013.5 |
| 20260503232648 | 13 | 329 | 6.4 | 17.7 | 0.00 | 0.00 | 0.00 | 45 | 1013.4 |
| 20260503232146 | 14 | 312 | 4.8 | 19.3 | 0.00 | 0.00 | 0.00 | 41 | 1013.5 |
| 20260503231644 | 14 | 330 | 8.0 | 14.5 | 0.00 | 0.00 | 0.00 | 44 | 1013.5 |
| 20260503231140 | 14 | 299 | 8.0 | 16.1 | 0.00 | 0.00 | 0.00 | 42 | 1013.4 |
| 20260503230637 | 14 | 338 | 3.2 | 19.3 | 0.00 | 0.00 | 0.00 | 43 | 1013.5 |
| 20260503230134 | 14 | 268 | 0.0 | 14.5 | 0.00 | 0.00 | 0.00 | 42 | 1013.3 |
| 20260503225631 | 14 | 343 | 3.2 | 17.7 | 0.00 | 0.00 | 0.00 | 45 | 1013.2 |
| 20260503225131 | 15 | 300 | 4.8 | 16.1 | 0.00 | 0.00 | 0.00 | 42 | 1013.3 |
| 20260503224629 | 14 | 345 | 3.2 | 14.5 | 0.00 | 0.00 | 0.00 | 40 | 1013.2 |
| 20260503224126 | 15 | 288 | 8.0 | 33.8 | 0.00 | 0.00 | 0.00 | 40 | 1013.3 |
| 20260503223624 | 15 | 343 | 4.8 | 20.9 | 0.00 | 0.00 | 0.00 | 41 | 1013.2 |
| 20260503223120 | 15 | 315 | 8.0 | 24.1 | 0.00 | 0.00 | 0.00 | 40 | 1013.2 |
| 20260503222618 | 15 | 308 | 16.1 | 20.9 | 0.00 | 0.00 | 0.00 | 40 | 1013.2 |
| 20260503222115 | 15 | 308 | 12.9 | 25.7 | 0.00 | 0.00 | 0.00 | 39 | 1013.3 |
| 20260503221614 | 15 | 311 | 4.8 | 19.3 | 0.00 | 0.00 | 0.00 | 39 | 1013.2 |
| 20260503221111 | 15 | 233 | 6.4 | 19.3 | 0.00 | 0.00 | 0.00 | 40 | 1013.1 |
| 20260503220607 | 15 | 65 | 3.2 | 16.1 | 0.00 | 0.00 | 0.00 | 41 | 1013.1 |
| 20260503220104 | 15 | 325 | 8.0 | 17.7 | 0.00 | 0.00 | 0.00 | 40 | 1013.0 |
| 20260503215601 | 15 | 320 | 9.7 | 29.0 | 0.00 | 0.00 | 0.00 | 40 | 1013.1 |
| 20260503215057 | 15 | 338 | 4.8 | 17.7 | 0.00 | 0.00 | 0.00 | 39 | 1012.9 |
| 20260503214556 | 15 | 294 | 8.0 | 25.7 | 0.00 | 0.00 | 0.00 | 39 | 1012.9 |
| 20260503214052 | 15 | 310 | 11.3 | 37.0 | 0.00 | 0.00 | 0.00 | 39 | 1012.5 |
| 20260503213551 | 15 | 310 | 4.8 | 17.7 | 0.00 | 0.00 | 0.00 | 38 | 1012.8 |
| 20260503213047 | 15 | 319 | 8.0 | 29.0 | 0.00 | 0.00 | 0.00 | 39 | 1012.7 |
| 20260503212544 | 15 | 289 | 11.3 | 25.7 | 0.00 | 0.00 | 0.00 | 37 | 1012.5 |
| 20260503212042 | 15 | 316 | 8.0 | 35.4 | 0.00 | 0.00 | 0.00 | 36 | 1012.7 |
| 20260503211539 | 15 | 311 | 14.5 | 27.4 | 0.00 | 0.00 | 0.00 | 36 | 1012.8 |
| 20260503211034 | 15 | 334 | 8.0 | 19.3 | 0.00 | 0.00 | 0.00 | 37 | 1012.6 |
| 20260503210531 | 15 | 298 | 6.4 | 38.6 | 0.00 | 0.00 | 0.00 | 37 | 1012.6 |
| 20260503210027 | 15 | 296 | 14.5 | 25.7 | 0.00 | 0.00 | 0.00 | 36 | 1012.7 |
| 20260503205524 | 15 | 303 | 12.9 | 35.4 | 0.00 | 0.00 | 0.00 | 37 | 1012.7 |
| 20260503205020 | 15 | 316 | 8.0 | 17.7 | 0.00 | 0.00 | 0.00 | 37 | 1012.5 |
| 20260503204517 | 15 | 318 | 8.0 | 29.0 | 0.00 | 0.00 | 0.00 | 38 | 1012.7 |
| 20260503204014 | 15 | 294 | 14.5 | 30.6 | 0.00 | 0.00 | 0.00 | 37 | 1012.7 |
| 20260503203512 | 16 | 298 | 8.0 | 16.1 | 0.00 | 0.00 | 0.00 | 37 | 1012.8 |
| 20260503203009 | 15 | 324 | 8.0 | 20.9 | 0.00 | 0.00 | 0.00 | 35 | 1012.8 |
| 20260503202506 | 15 | 301 | 6.4 | 20.9 | 0.00 | 0.00 | 0.00 | 37 | 1012.8 |
| 20260503202004 | 15 | 319 | 9.7 | 17.7 | 0.00 | 0.00 | 0.00 | 37 | 1012.7 |
| 20260503201502 | 15 | 326 | 6.4 | 24.1 | 0.00 | 0.00 | 0.00 | 36 | 1012.7 |
| 20260503200959 | 15 | 273 | 11.3 | 24.1 | 0.00 | 0.00 | 0.00 | 36 | 1012.6 |
| 20260503200455 | 15 | 295 | 6.4 | 22.5 | 0.00 | 0.00 | 0.00 | 37 | 1012.6 |
| 20260503195952 | 15 | 310 | 11.3 | 19.3 | 0.00 | 0.00 | 0.00 | 39 | 1012.5 |
| 20260503195449 | 15 | 306 | 12.9 | 16.1 | 0.00 | 0.00 | 0.00 | 38 | 1012.7 |
| 20260503194945 | 15 | 303 | 12.9 | 43.5 | 0.00 | 0.00 | 0.00 | 37 | 1012.9 |
| 20260503194443 | 15 | 317 | 8.0 | 24.1 | 0.00 | 0.00 | 0.00 | 38 | 1012.8 |
| 20260503193938 | 14 | 296 | 6.4 | 22.5 | 0.00 | 0.00 | 0.00 | 39 | 1012.8 |
| 20260503193434 | 15 | 316 | 11.3 | 27.4 | 0.00 | 0.00 | 0.00 | 39 | 1012.8 |
| 20260503192929 | 15 | 309 | 11.3 | 22.5 | 0.00 | 0.00 | 0.00 | 38 | 1012.9 |
| 20260503192426 | 14 | 309 | 6.4 | 37.0 | 0.00 | 0.00 | 0.00 | 38 | 1012.8 |
| 20260503191921 | 15 | 299 | 8.0 | 29.0 | 0.00 | 0.00 | 0.00 | 39 | 1013.1 |
| 20260503191420 | 15 | 196 | 4.8 | 24.1 | 0.00 | 0.00 | 0.00 | 40 | 1012.9 |
| 20260503190916 | 14 | 308 | 8.0 | 33.8 | 0.00 | 0.00 | 0.00 | 38 | 1013.1 |
| 20260503190413 | 14 | 297 | 6.4 | 32.2 | 0.00 | 0.00 | 0.00 | 41 | 1013.1 |
| 20260503185910 | 14 | 315 | 11.3 | 35.4 | 0.00 | 0.00 | 0.00 | 41 | 1013.2 |
| 20260503185406 | 14 | 327 | 14.5 | 35.4 | 0.00 | 0.00 | 0.00 | 38 | 1013.3 |
| 20260503184905 | 14 | 324 | 9.7 | 33.8 | 0.00 | 0.00 | 0.00 | 40 | 1013.3 |
| 20260503184402 | 14 | 292 | 8.0 | 29.0 | 0.00 | 0.00 | 0.00 | 40 | 1013.3 |
| 20260503183858 | 14 | 295 | 8.0 | 35.4 | 0.00 | 0.00 | 0.00 | 41 | 1013.2 |
| 20260503183355 | 13 | 329 | 6.4 | 35.4 | 0.00 | 0.00 | 0.00 | 40 | 1013.3 |
| 20260503182853 | 13 | 318 | 8.0 | 24.1 | 0.00 | 0.00 | 0.00 | 40 | 1013.3 |
| 20260503182351 | 13 | 335 | 6.4 | 33.8 | 0.00 | 0.00 | 0.00 | 39 | 1013.2 |
| 20260503181848 | 13 | 326 | 9.7 | 20.9 | 0.00 | 0.00 | 0.00 | 42 | 1013.3 |
| 20260503181345 | 14 | 299 | 14.5 | 20.9 | 0.00 | 0.00 | 0.00 | 39 | 1013.3 |
| 20260503180842 | 13 | 297 | 4.8 | 25.7 | 0.00 | 0.00 | 0.00 | 42 | 1013.3 |
| 20260503180340 | 13 | 327 | 9.7 | 46.7 | 0.00 | 0.00 | 0.00 | 40 | 1013.5 |